EW7670 Weather Reports


Display with metric or nautical units.
time (UTC)temp
F
wind
direction
speed
MPH
gust
MPH
rain 1hr
in
rain 24hr
in
rain mn
in
humidity
%
barometer
mb
20260508081523 54 327 11.0 16.0 0.00 0.49 0.00 87 1011.0
20260508073109 55 8 10.0 19.0 0.00 0.49 0.00 86 1010.9
20260508071639 55 333 7.0 18.0 0.00 0.49 0.00 87 1010.8
20260508063128 55 337 7.0 15.0 0.00 0.49 0.00 89 1010.4
20260508060041 55 345 11.0 20.0 0.00 0.49 0.00 89 1010.2
20260508054549 55 352 8.0 16.0 0.00 0.49 0.00 89 1010.4
20260508053034 55 359 12.0 20.0 0.00 0.49 0.00 89 1010.1
20260508051528 56 35 9.0 16.0 0.00 0.49 0.00 88 1010.0
20260508050039 56 341 9.0 15.0 0.00 0.49 0.00 88 1010.2
20260508044536 56 27 9.0 18.0 0.00 0.49 0.00 88 1009.9
20260508043053 57 356 10.0 16.0 0.00 0.49 0.00 88 1009.4
20260508041543 57 352 11.0 20.0 0.00 0.49 0.00 87 1009.6
20260508040042 57 359 10.0 18.0 0.00 0.49 0.49 87 1009.0
20260508034652 57 349 11.0 19.0 0.00 0.49 0.49 87 1008.9
20260508023057 58 34 16.0 25.0 0.00 0.49 0.49 90 1008.0
20260508013020 55 8 16.0 26.0 0.00 0.49 0.49 93 1008.3
20260508003136 55 26 19.0 29.0 0.00 0.49 0.49 95 1007.7
20260508001517 56 34 17.0 27.0 0.00 0.49 0.49 95 1007.7
20260507213101 64 317 8.0 13.0 0.00 0.46 0.46 95 1005.1
20260507203040 64 329 2.0 6.0 0.00 0.46 0.46 95 1005.1
20260507174646 70 247 18.0 23.0 0.00 0.20 0.20 94 1006.8
20260507173126 70 251 16.0 22.0 0.00 0.20 0.20 94 1007.1
20260507171626 70 222 14.0 23.0 0.00 0.20 0.20 94 1007.5
20260507163102 71 204 13.0 25.0 0.01 0.20 0.20 93 1007.9
20260507154512 70 194 17.0 27.0 0.01 0.20 0.20 94 1007.9
20260507153137 70 209 16.0 24.0 0.00 0.19 0.19 93 1007.6
20260507140115 69 197 20.0 30.0 0.02 0.19 0.19 96 1008.2
20260507134641 69 196 17.0 31.0 0.05 0.19 0.19 95 1008.5
20260507124507 69 217 17.0 27.0 0.08 0.14 0.14 96 1009.7
20260507114616 70 211 17.0 23.0 0.00 0.06 0.06 94 1010.1
20260507103111 69 223 15.0 25.0 0.00 0.06 0.06 93 1009.4
20260507094656 69 225 14.0 22.0 0.01 0.06 0.06 95 1009.0